Regional Weather Roundup
Issued by NWS

Home | Current Version | Previous Version | Graphics & Text | Print | Product List | Glossary On
Versions: 1 2 3 4 5 6 7 8 9 10 11 12 13 14 15 16 17 18 19 20 21 22 23 24 25 26 27 28 29 30 31 32 33 34 35 36 37 38 39 40 41 42 43 44 45 46 47 48 49 50
000
ASUS43 KLOT 270810
RWRIL

ILLINOIS REGIONAL WEATHER ROUNDUP
NATIONAL WEATHER SERVICE CHICAGO/ROMEOVILLE IL
200 AM CST TUE JAN 27 2015

NOTE: "FAIR" INDICATES FEW OR NO CLOUDS BELOW 12,000 FEET WITH NO
SIGNIFICANT WEATHER AND/OR OBSTRUCTIONS TO VISIBILITY.

* THESE STATIONS ARE NOT UNDER NWS QUALITY CONTROL. THEY ALSO MAY NOT
  REPORT WEATHER SUCH AS PRECIPITATION OR FOG.

ILZ001-002-007-009-015-016-024-270900-
NORTHWEST ILLINOIS

CITY           SKY/WX    TMP DP  RH WIND       PRES   REMARKS
MOLINE         CLOUDY    36  31  82 NW8       29.95R WCI  30
STERLING*      CLOUDY    28  27  93 N7        29.96R WCI  21
SAVANNA*       CLOUDY    28  27  94 CALM      29.96R FOG
$$

ILZ003-004-008-010-011-017-018-270900-
NORTH CENTRAL ILLINOIS

CITY           SKY/WX    TMP DP  RH WIND       PRES   REMARKS
ROCKFORD       CLOUDY    26  24  92 N5        29.96R FOG     WCI  20
FREEPORT*      CLOUDY    26  25  96 NW3       29.96R FOG
ROCHELLE*      CLOUDY    27  27  97 N6        29.94R FOG     WCI  21
DE KALB*       CLOUDY    25  24  96 NE3       29.94R FOG
PERU*          CLOUDY    30  29  99 N5        29.94R FOG     WCI  25
$$

ILZ005-006-012>014-019>023-270900-
NORTHEAST ILLINOIS

CITY           SKY/WX    TMP DP  RH WIND       PRES   REMARKS
CHICAGO-OHARE  CLOUDY    27  24  89 NE3       29.94R
CHICAGO-MIDWAY LGT SNOW  29  25  85 E5        29.94R FOG     WCI  24
AURORA         CLOUDY    28  24  85 NE3       29.94R FOG
LANSING*       MIX PCPN  25  23  93 E5        29.95R WCI  19
JOLIET*        CLOUDY    28  26  93 E3        29.94R FOG
WAUKEGAN       CLOUDY    26  23  88 NW3       29.94R
DUPAGE AIRPORT CLOUDY    27  24  89 NE3       29.93R
KANKAKEE*      MIX PCPN  28  27  95 E3        29.94R
WHEELING       CLOUDY    27  24  89 CALM      29.96R FOG
MORRIS*        LGT SNOW  29  29 100 CALM      29.93R
ROMEOVILLE*    CLOUDY    27  27  98 E3        29.94R
NORTHERLY ISL    N/A     27  25  92 E7          N/A  WCI  20
$$

LMZ740>746-270900-
SOUTHERN LAKE MICHIGAN

STATION/POSITION SKY/WX   TEMP    WIND        PRES    VSBY  WAVE
                          AIR SEA DIR/SP/G                  HT/PER
                          (F)     (DEG/KT/KT) (MB)    (MI)  (FT/S)
WAUKEGAN HARBOR            27        CALM       N/A
HARRISON CRIB              26     130/  9/ 11   N/A
BURNHAM HARBOR             26     110/  6/  9   N/A
CALUMET HARBOR             26     100/  5/  7   N/A
MICHIGAN CITY              23      60/  3/  5   N/A
$$

ILZ025>027-034>036-040-047-049-050-058-095>099-270900-
WEST-CENTRAL ILLINOIS

CITY           SKY/WX    TMP DP  RH WIND       PRES   REMARKS
QUINCY         PTCLDY    35  32  88 NW10      29.96R WCI  27
GALESBURG*     CLOUDY    34  33  96 NW7       29.94R WCI  28
MACOMB*        MOCLDY    36  34  93 NW12      29.97R WCI  28
JACKSONVILLE*  CLOUDY    38  35  87 NW7       29.94R WCI  33
PITTSFIELD*    MOCLDY    38  35  86 NW9       29.96R WCI  32
$$

ILZ028>032-037-038-041>044-048-051>054-059>061-270900-
CENTRAL ILLINOIS

CITY           SKY/WX    TMP DP  RH WIND       PRES   REMARKS
PONTIAC        MIX PCPN  32  32 100 NW8       29.93R WCI  24
BLOOMINGTON    CLOUDY    31  31 100 NW6       29.92R FOG     WCI  25
DECATUR        CLOUDY    34  33  96 NW5       29.91R WCI  30
PEORIA         CLOUDY    34  30  85 N6        29.94R WCI  29
LACON*         CLOUDY    29  28  95 CALM      29.94R FOG
LINCOLN*       CLOUDY    33  31  93 NW3       29.94R FOG
SPRINGFIELD    CLOUDY    35  31  85 NW7       29.93R WCI  29
TAYLORVILLE    CLOUDY    32  30  93 NW5       29.92R WCI  27
$$

ILZ033-039-045-046-055>057-062-063-270900-
EAST-CENTRAL ILLINOIS

CITY           SKY/WX    TMP DP  RH WIND       PRES   REMARKS
CHAMPAIGN      CLOUDY    30  28  92 CALM      29.90R FOG
DANVILLE*      LGT RAIN  28  28  98 S3        29.89R
RANTOUL*       CLOUDY    31  31  99 CALM      29.90R FOG
MATTOON        CLOUDY    30  28  92 CALM      29.89S FOG
PARIS*         MIX PCPN  29  29  99 CALM      29.91S
$$

ILZ079-100>102-270900-
SOUTHWEST ILLINOIS

CITY           SKY/WX    TMP DP  RH WIND       PRES   REMARKS
ALTON          PTCLDY    36  33  89 NW6       29.94R WCI  31
BELLEVILLE     CLEAR     34  32  94 NW5       29.92R WCI  29
CAHOKIA*       CLEAR     40  34  79 NW12      29.94R
SPARTA*        CLOUDY    36  32  85 NW5       29.93R WCI  32
$$

ILZ064>066-069>071-074>076-080>082-084>086-088>090-092>094-270900-
SOUTH-CENTRAL ILLINOIS

CITY           SKY/WX    TMP DP  RH WIND       PRES   REMARKS
CARBONDALE     CLOUDY    36  30  79 W3        29.91R
CAIRO*         PTCLDY    32  32  99 CALM      29.92R FOG
EFFINGHAM*     CLOUDY    32  29  89 CALM      29.93R FOG
MARION         CLOUDY    37  32  81 CALM      29.92R
MT. VERNON     CLOUDY    30  27  86 CALM      29.91S
CENTRALIA*     CLOUDY    32  29  89 W5        29.91R WCI  28
SALEM*         MOCLDY    34  30  87 NW3       29.91R
METROPOLIS*    CLOUDY    37  33  84 CALM      29.90S
$$

ILZ067-068-072-073-078-083-087-091-270900-
SOUTHEAST ILLINOIS

CITY           SKY/WX    TMP DP  RH WIND       PRES   REMARKS
LAWRENCEVILLE  CLOUDY    30  29  96 CALM      29.93R FOG
FLORA*         CLOUDY    31  30  96 CALM      29.92R
FAIRFIELD*     CLOUDY    32  30  94 CALM      29.90R
HARRISBURG*    CLOUDY    33  33 100 CALM      29.91F
ROBINSON*      CLOUDY    30  29  99 CALM      29.93S FOG
CARMI*         CLOUDY    34  34 100 CALM      29.91R FOG
$$

ABBREVIATIONS USED IN REMARKS
   TC - TEMPERATURE IN CELSIUS
  WCI - WIND CHILL INDEX
   HX - HEAT INDEX
  VSB - VISIBILITY
$$




USA.gov is the U.S. government's official web portal to all federal, state and local government web resources and services.